星链-36657(STARLINK-36657)

导读

STARLINK-36657是美国SpaceX公司星链星座的第二代卫星,于2026年2月16日发射入轨,属于低轨宽带通信卫星。它继承星链成熟技术方案,配备增强型相控阵天线与激光星间链路,采用氪离子霍尔推进系统,具备自主避碰能力,设计寿命5-7年,旨在为全球提供高速低延迟互联网接入服务,是星链第二代大规模组网部署中的组成卫星。

基本信息
目录编号:
67835
目录名称:
STARLINK-36657
国际标识:
2026-033Q
轨道中心:
EARTH
卫星名称:
星链-36657
卫星全名:
星链-36657(STARLINK-36657)
卫星状态:
在轨 (已飞行117 天)
发射日期:
2026-02-16 UTC
国别 :
美国 (US)
星等 :
--
轨道信息
数据来源 国际轨道数据 AOE轨道数据
星历时间 2026-06-12T10:02:50+0800
1天前
查看轨道信息
2026-06-11T18:00:00+0800
1天前
查看轨道信息
半长轴 6861.13km 6861.205km
偏心率 0.0001128 0.0000826
轨道倾角 42.996° 43.004°
近地点辐角 257.410° 229.207°
升交点赤经 93.678° 97.463°
平近点角 102.663° 49.530°
近地点 482.219km 482.501km
远地点 483.767km 483.635km
周期 94.266分钟 94.267分钟
每日圈数 15.27599 15.275739
详细信息
固有亮度:
5
最大亮度:
2.5
卫星平台:
Starlink V1.0
覆盖范围:
全球
运营商:
太空探索技术公司
运营商所在国:
美国
制造商(研发单位):
太空探索技术公司
制造商所在国:
美国
使用方式:
暂无
卫星简介
Starlink 计划是 SpaceX 推出的全球卫星互联网项目,通过发射低轨道卫星,为全球尤其是偏远地区提供高速、低延迟的互联网服务。自 2019 年起,Starlink 已部署数千颗卫星,旨在缩小全球数字鸿沟,推动互联网普及。该项目还为军事、航空等行业提供通信支持,带来广泛经济效益。
2D轨道图
3D轨道图
轨道高度分析图
轨道倾角分析图
轨道综合分析图
查看轨道综合分析图